TimeEDT,TemperatureF,Dew PointF,Humidity,Sea Level PressureIn,VisibilityMPH,Wind Direction,Wind SpeedMPH,Gust SpeedMPH,PrecipitationIn,Events,Conditions,WindDirDegrees,DateUTC
12:15 AM,42.8,32.0,66,29.84,10.0,West,15.0,20.7,N/A,,Unknown,280,2013-04-20 04:15:00
12:35 AM,42.8,30.2,61,29.83,10.0,WNW,21.9,28.8,N/A,,Unknown,290,2013-04-20 04:35:00
12:55 AM,42.8,28.4,57,29.85,10.0,West,27.6,33.4,N/A,,Unknown,280,2013-04-20 04:55:00
1:15 AM,42.8,30.2,61,29.85,10.0,West,23.0,29.9,N/A,,Unknown,280,2013-04-20 05:15:00
1:35 AM,42.8,30.2,61,29.86,10.0,WNW,10.4,24.2,N/A,,Unknown,290,2013-04-20 05:35:00
1:55 AM,39.2,33.8,81,29.87,10.0,West,12.7,24.2,N/A,,Unknown,280,2013-04-20 05:55:00
2:35 AM,39.2,30.2,70,29.87,10.0,WNW,15.0,20.7,N/A,,Unknown,290,2013-04-20 06:35:00
2:55 AM,37.4,33.8,87,29.88,10.0,NW,12.7,20.7,N/A,,Unknown,310,2013-04-20 06:55:00
3:15 AM,35.6,35.6,100,29.90,10.0,West,11.5,19.6,N/A,,Unknown,280,2013-04-20 07:15:00
3:35 AM,35.6,35.6,100,29.90,10.0,West,12.7,-,N/A,,Unknown,270,2013-04-20 07:35:00
3:55 AM,35.6,35.6,100,29.90,10.0,WSW,10.4,-,N/A,,Unknown,250,2013-04-20 07:55:00
4:15 AM,37.4,33.8,87,29.91,10.0,West,10.4,-,N/A,,Unknown,260,2013-04-20 08:15:00
4:35 AM,37.4,32.0,81,29.91,10.0,West,13.8,-,N/A,,Unknown,270,2013-04-20 08:35:00
4:55 AM,37.4,33.8,87,29.92,10.0,WSW,10.4,-,N/A,,Unknown,250,2013-04-20 08:55:00
5:15 AM,37.4,33.8,87,29.92,10.0,West,15.0,20.7,N/A,,Unknown,270,2013-04-20 09:15:00
5:35 AM,37.4,33.8,87,29.92,10.0,West,6.9,-,N/A,,Unknown,270,2013-04-20 09:35:00
5:55 AM,35.6,32.0,87,29.92,10.0,West,12.7,19.6,N/A,,Unknown,260,2013-04-20 09:55:00
6:15 AM,35.6,30.2,81,29.93,10.0,West,13.8,19.6,N/A,,Unknown,260,2013-04-20 10:15:00
6:35 AM,35.6,30.2,81,29.93,10.0,West,12.7,17.3,N/A,,Unknown,260,2013-04-20 10:35:00
6:55 AM,35.6,30.2,81,29.94,10.0,WSW,10.4,-,N/A,,Unknown,250,2013-04-20 10:55:00
7:15 AM,35.6,32.0,87,29.95,10.0,WSW,11.5,20.7,N/A,,Unknown,250,2013-04-20 11:15:00
7:35 AM,35.6,33.8,93,29.97,10.0,WSW,9.2,-,N/A,,Unknown,250,2013-04-20 11:35:00
7:55 AM,35.6,33.8,93,29.98,10.0,West,9.2,-,N/A,,Unknown,260,2013-04-20 11:55:00
8:15 AM,33.8,33.8,100,29.99,5.0,West,15.0,20.7,N/A,,Unknown,260,2013-04-20 12:15:00
8:35 AM,35.6,35.6,100,30.00,10.0,West,13.8,19.6,0.01,,Unknown,270,2013-04-20 12:35:00
8:55 AM,37.4,35.6,93,30.00,10.0,West,15.0,-,0.01,,Unknown,270,2013-04-20 12:55:00
9:15 AM,37.4,33.8,87,30.00,10.0,West,13.8,23.0,N/A,,Unknown,260,2013-04-20 13:15:00
9:35 AM,37.4,30.2,75,30.01,10.0,West,17.3,23.0,N/A,,Unknown,270,2013-04-20 13:35:00
9:55 AM,37.4,33.8,87,30.02,10.0,West,16.1,24.2,N/A,,Unknown,260,2013-04-20 13:55:00
10:15 AM,37.4,33.8,87,30.03,10.0,West,16.1,27.6,N/A,,Unknown,260,2013-04-20 14:15:00
10:35 AM,37.4,30.2,75,30.04,10.0,West,17.3,24.2,N/A,,Unknown,270,2013-04-20 14:35:00
10:55 AM,39.2,30.2,70,30.05,10.0,West,17.3,28.8,N/A,,Unknown,280,2013-04-20 14:55:00
11:15 AM,39.2,30.2,70,30.07,10.0,WNW,12.7,20.7,N/A,,Unknown,300,2013-04-20 15:15:00
11:35 AM,41.0,32.0,70,30.08,10.0,WNW,13.8,19.6,N/A,,Unknown,300,2013-04-20 15:35:00
11:55 AM,39.2,30.2,70,30.08,10.0,WNW,12.7,23.0,N/A,,Unknown,290,2013-04-20 15:55:00
12:15 PM,41.0,28.4,61,30.09,10.0,NW,18.4,25.3,N/A,,Unknown,310,2013-04-20 16:15:00
12:35 PM,41.0,28.4,61,30.09,10.0,WNW,18.4,26.5,N/A,,Unknown,300,2013-04-20 16:35:00
12:55 PM,41.0,26.6,57,30.10,10.0,WNW,13.8,23.0,N/A,,Unknown,290,2013-04-20 16:55:00
1:15 PM,42.8,24.8,49,30.10,10.0,WNW,19.6,28.8,N/A,,Unknown,300,2013-04-20 17:15:00
1:35 PM,42.8,26.6,53,30.11,10.0,WNW,17.3,27.6,N/A,,Unknown,290,2013-04-20 17:35:00
1:55 PM,42.8,24.8,49,30.11,10.0,NW,20.7,28.8,N/A,,Unknown,310,2013-04-20 17:55:00
2:15 PM,42.8,24.8,49,30.12,10.0,NW,17.3,25.3,N/A,,Unknown,310,2013-04-20 18:15:00
2:35 PM,42.8,26.6,53,30.13,10.0,WNW,15.0,18.4,N/A,,Unknown,300,2013-04-20 18:35:00
2:55 PM,42.8,28.4,57,30.14,10.0,WNW,13.8,24.2,N/A,,Unknown,300,2013-04-20 18:55:00
3:15 PM,44.6,28.4,53,30.14,10.0,WNW,13.8,19.6,N/A,,Unknown,290,2013-04-20 19:15:00
3:35 PM,42.8,28.4,57,30.15,10.0,NW,12.7,27.6,N/A,,Unknown,310,2013-04-20 19:35:00
3:55 PM,44.6,28.4,53,30.15,10.0,NW,12.7,20.7,N/A,,Unknown,320,2013-04-20 19:55:00
4:15 PM,42.8,28.4,57,30.16,10.0,NW,15.0,29.9,N/A,,Unknown,320,2013-04-20 20:15:00
4:35 PM,42.8,26.6,53,30.17,10.0,WNW,18.4,25.3,N/A,,Unknown,300,2013-04-20 20:35:00
4:55 PM,44.6,26.6,49,30.18,10.0,NW,15.0,20.7,N/A,,Unknown,310,2013-04-20 20:55:00
5:15 PM,42.8,26.6,53,30.19,10.0,NW,10.4,21.9,N/A,,Unknown,310,2013-04-20 21:15:00
5:35 PM,42.8,26.6,53,30.20,10.0,WNW,10.4,21.9,N/A,,Unknown,290,2013-04-20 21:35:00
5:55 PM,42.8,24.8,49,30.21,10.0,NW,12.7,24.2,N/A,,Unknown,310,2013-04-20 21:55:00
6:15 PM,42.8,24.8,49,30.22,10.0,WNW,18.4,-,N/A,,Unknown,300,2013-04-20 22:15:00
6:35 PM,42.8,24.8,49,30.23,10.0,NW,12.7,19.6,N/A,,Unknown,320,2013-04-20 22:35:00
6:55 PM,42.8,24.8,49,30.24,10.0,NW,11.5,17.3,N/A,,Unknown,320,2013-04-20 22:55:00
7:15 PM,41.0,24.8,53,30.24,10.0,NW,13.8,20.7,N/A,,Unknown,320,2013-04-20 23:15:00
7:35 PM,41.0,24.8,53,30.25,10.0,WNW,9.2,-,N/A,,Unknown,300,2013-04-20 23:35:00
7:55 PM,39.2,24.8,56,30.26,10.0,NW,4.6,-,N/A,,Unknown,320,2013-04-20 23:55:00
8:15 PM,39.2,24.8,56,30.27,10.0,NW,5.8,-,N/A,,Unknown,310,2013-04-21 00:15:00
8:35 PM,37.4,24.8,60,30.29,10.0,WNW,3.5,-,N/A,,Unknown,300,2013-04-21 00:35:00
8:55 PM,37.4,24.8,60,30.30,10.0,NW,5.8,-,N/A,,Unknown,310,2013-04-21 00:55:00
9:15 PM,37.4,24.8,60,30.31,10.0,NW,3.5,-,N/A,,Unknown,320,2013-04-21 01:15:00
9:35 PM,35.6,24.8,65,30.33,10.0,North,3.5,-,N/A,,Unknown,10,2013-04-21 01:35:00
9:55 PM,35.6,24.8,65,30.34,10.0,North,3.5,-,N/A,,Unknown,10,2013-04-21 01:55:00
10:15 PM,35.6,24.8,65,30.35,10.0,NNE,3.5,-,N/A,,Unknown,20,2013-04-21 02:15:00
10:35 PM,35.6,24.8,65,30.35,10.0,North,5.8,-,N/A,,Unknown,10,2013-04-21 02:35:00
10:55 PM,33.8,24.8,70,30.36,10.0,NNE,3.5,-,N/A,,Unknown,20,2013-04-21 02:55:00
11:15 PM,33.8,24.8,70,30.37,10.0,Calm,Calm,-,N/A,,Unknown,0,2013-04-21 03:15:00
11:35 PM,33.8,24.8,70,30.38,10.0,Calm,Calm,-,N/A,,Unknown,0,2013-04-21 03:35:00
11:55 PM,33.8,24.8,70,30.39,10.0,Calm,Calm,-,N/A,,Unknown,0,2013-04-21 03:55:00